"FRM_SS2_TRK_CMP_EDR_2603.DAT   ",2006-01-21T13:01:46.77 ,"1/0085928503.02754",    0,    0,   53509,"SS2","B3","B2","B3","B2","PISd",1,2,0,1,"B2", 0,15,   1, 0,    0,"TRK","NO  REC","OK ","OK ",    000913.979,    -026.919,    0150.367,    0020.813,    0126.676
"FRM_SS2_TRK_CMP_EDR_2603.DAT   ",2006-01-21T13:01:48.92 ,"1/0085928505.12263",    0,    1,   53509,"SS2","B3","B2","B3","B2","PISd",1,2,0,1,"B2", 0,15,   1, 0,    0,"TRK","NO  REC","OK ","OK ",    000911.287,    -027.023,    0150.366,    0020.814,    0126.642
"FRM_SS2_TRK_CMP_EDR_2603.DAT   ",2006-01-21T13:01:51.05 ,"1/0085928507.21257",    0,    2,   53509,"SS2","B3","B2","B3","B2","PISd",1,2,0,1,"B2", 0,15,   1, 0,    0,"TRK","NO  REC","OK ","OK ",    000908.609,    -027.126,    0150.365,    0020.814,    0126.608
"FRM_SS2_TRK_CMP_EDR_2603.DAT   ",2006-01-21T13:01:53.19 ,"1/0085928509.30252",    0,    3,   53509,"SS2","B3","B2","B3","B2","PISd",1,2,0,1,"B2", 0,15,   1, 0,    0,"TRK","NO  REC","OK ","OK ",    000905.934,    -027.230,    0150.365,    0020.815,    0126.574
"FRM_SS2_TRK_CMP_EDR_2603.DAT   ",2006-01-21T13:01:55.32 ,"1/0085928511.38731",    0,    4,   53509,"SS2","B3","B2","B3","B2","PISd",1,2,0,1,"B2", 0,15,   1, 0,    0,"TRK","NO  REC","OK ","OK ",    000903.273,    -027.334,    0150.364,    0020.816,    0126.540
"FRM_SS2_TRK_CMP_EDR_2603.DAT   ",2006-01-21T13:01:57.45 ,"1/0085928513.47210",    0,    5,   53509,"SS2","B3","B2","B3","B2","PISd",1,2,0,1,"B2", 0,15,   1, 0,    0,"TRK","NO  REC","OK ","OK ",    000900.616,    -027.437,    0150.363,    0020.816,    0126.506
"FRM_SS2_TRK_CMP_EDR_2603.DAT   ",2006-01-21T13:01:59.57 ,"1/0085928515.55174",    0,    6,   53509,"SS2","B3","B2","B3","B2","PISd",1,2,0,1,"B2", 0,15,   1, 0,    0,"TRK","NO  REC","OK ","OK ",    000897.972,    -027.541,    0150.362,    0020.816,    0126.471
"FRM_SS2_TRK_CMP_EDR_2603.DAT   ",2006-01-21T13:02:01.69 ,"1/0085928517.63139",    0,    7,   53509,"SS2","B3","B2","B3","B2","PISd",1,2,0,1,"B2", 0,15,   1, 0,    0,"TRK","NO  REC","OK ","OK ",    000895.332,    -027.644,    0150.361,    0020.817,    0126.437
"FRM_SS2_TRK_CMP_EDR_2603.DAT   ",2006-01-21T13:02:03.81 ,"1/0085928520.05052",    0,    8,   53509,"SS2","B3","B2","B3","B2","PISd",1,2,0,1,"B2", 0,15,   1, 0,    0,"TRK","NO  REC","OK ","OK ",    000892.705,    -027.748,    0150.360,    0020.817,    0126.402
"FRM_SS2_TRK_CMP_EDR_2603.DAT   ",2006-01-21T13:02:05.92 ,"1/0085928522.12502",    0,    9,   53509,"SS2","B3","B2","B3","B2","PISd",1,2,0,1,"B2", 0,15,   1, 0,    0,"TRK","NO  REC","OK ","OK ",    000890.082,    -027.851,    0150.359,    0020.818,    0126.368
"FRM_SS2_TRK_CMP_EDR_2603.DAT   ",2006-01-21T13:02:08.03 ,"1/0085928524.19436",    0,   10,   53509,"SS2","B3","B2","B3","B2","PISd",1,2,0,1,"B2", 0,15,   1, 0,    0,"TRK","NO  REC","OK ","OK ",    000887.472,    -027.954,    0150.359,    0020.819,    0126.333
"FRM_SS2_TRK_CMP_EDR_2603.DAT   ",2006-01-21T13:02:10.13 ,"1/0085928526.26370",    0,   11,   53509,"SS2","B3","B2","B3","B2","PISd",1,2,0,1,"B2", 0,15,   1, 0,    0,"TRK","NO  REC","OK ","OK ",    000884.866,    -028.057,    0150.358,    0020.819,    0126.298
"FRM_SS2_TRK_CMP_EDR_2603.DAT   ",2006-01-21T13:02:12.23 ,"1/0085928528.32790",    0,   12,   53509,"SS2","B3","B2","B3","B2","PISd",1,2,0,1,"B2", 0,15,   1, 0,    0,"TRK","NO  REC","OK ","OK ",    000882.274,    -028.161,    0150.357,    0020.820,    0126.263
"FRM_SS2_TRK_CMP_EDR_2603.DAT   ",2006-01-21T13:02:14.33 ,"1/0085928530.39209",    0,   13,   53509,"SS2","B3","B2","B3","B2","PISd",1,2,0,1,"B2", 0,15,   1, 0,    0,"TRK","NO  REC","OK ","OK ",    000879.685,    -028.264,    0150.357,    0020.820,    0126.228
"FRM_SS2_TRK_CMP_EDR_2603.DAT   ",2006-01-21T13:02:16.42 ,"1/0085928532.45114",    0,   14,   53509,"SS2","B3","B2","B3","B2","PISd",1,2,0,1,"B2", 0,15,   1, 0,    0,"TRK","NO  REC","OK ","OK ",    000877.109,    -028.367,    0150.356,    0020.821,    0126.193
"FRM_SS2_TRK_CMP_EDR_2603.DAT   ",2006-01-21T13:02:18.51 ,"1/0085928534.51018",    0,   15,   53509,"SS2","B3","B2","B3","B2","PISd",1,2,0,1,"B2", 0,15,   1, 0,    0,"TRK","NO  REC","OK ","OK ",    000874.537,    -028.470,    0150.355,    0020.821,    0126.158
"FRM_SS2_TRK_CMP_EDR_2603.DAT   ",2006-01-21T13:02:20.59 ,"1/0085928536.56408",    0,   16,   53509,"SS2","B3","B2","B3","B2","PISd",1,2,0,1,"B2", 0,15,   1, 0,    0,"TRK","NO  REC","OK ","OK ",    000871.979,    -028.572,    0150.355,    0020.822,    0126.122
"FRM_SS2_TRK_CMP_EDR_2603.DAT   ",2006-01-21T13:02:22.67 ,"1/0085928538.61798",    0,   17,   53509,"SS2","B3","B2","B3","B2","PISd",1,2,0,1,"B2", 0,15,   1, 0,    0,"TRK","NO  REC","OK ","OK ",    000869.424,    -028.675,    0150.354,    0020.822,    0126.087
"FRM_SS2_TRK_CMP_EDR_2603.DAT   ",2006-01-21T13:02:24.76 ,"1/0085928541.01651",    0,   18,   53509,"SS2","B3","B2","B3","B2","PISd",1,2,0,1,"B2", 0,15,   1, 0,    0,"TRK","NO  REC","OK ","OK ",    000866.873,    -028.778,    0150.354,    0020.823,    0126.051
"FRM_SS2_TRK_CMP_EDR_2603.DAT   ",2006-01-21T13:02:26.83 ,"1/0085928543.06526",    0,   19,   53509,"SS2","B3","B2","B3","B2","PISd",1,2,0,1,"B2", 0,15,   1, 0,    0,"TRK","NO  REC","OK ","OK ",    000864.335,    -028.881,    0150.353,    0020.823,    0126.016
"FRM_SS2_TRK_CMP_EDR_2603.DAT   ",2006-01-21T13:02:28.90 ,"1/0085928545.11400",    0,   20,   53509,"SS2","B3","B2","B3","B2","PISd",1,2,0,1,"B2", 0,15,   1, 0,    0,"TRK","NO  REC","OK ","OK ",    000861.801,    -028.984,    0150.353,    0020.824,    0125.980
"FRM_SS2_TRK_CMP_EDR_2603.DAT   ",2006-01-21T13:02:30.97 ,"1/0085928547.15760",    0,   21,   53509,"SS2","B3","B2","B3","B2","PISd",1,2,0,1,"B2", 0,15,   1, 0,    0,"TRK","NO  REC","OK ","OK ",    000859.280,    -029.087,    0150.352,    0020.824,    0125.944
"FRM_SS2_TRK_CMP_EDR_2603.DAT   ",2006-01-21T13:02:33.04 ,"1/0085928549.20120",    0,   22,   53509,"SS2","B3","B2","B3","B2","PISd",1,2,0,1,"B2", 0,15,   1, 0,    0,"TRK","NO  REC","OK ","OK ",    000856.763,    -029.189,    0150.352,    0020.825,    0125.908
"FRM_SS2_TRK_CMP_EDR_2603.DAT   ",2006-01-21T13:02:35.10 ,"1/0085928551.23965",    0,   23,   53509,"SS2","B3","B2","B3","B2","PISd",1,2,0,1,"B2", 0,15,   1, 0,    0,"TRK","NO  REC","OK ","OK ",    000854.259,    -029.292,    0150.351,    0020.825,    0125.872
"FRM_SS2_TRK_CMP_EDR_2603.DAT   ",2006-01-21T13:02:37.15 ,"1/0085928553.27809",    0,   24,   53509,"SS2","B3","B2","B3","B2","PISd",1,2,0,1,"B2", 0,15,   1, 0,    0,"TRK","NO  REC","OK ","OK ",    000851.759,    -029.394,    0150.351,    0020.826,    0125.836
"FRM_SS2_TRK_CMP_EDR_2603.DAT   ",2006-01-21T13:02:39.21 ,"1/0085928555.31139",    0,   25,   53509,"SS2","B3","B2","B3","B2","PISd",1,2,0,1,"B2", 0,15,   1, 0,    0,"TRK","NO  REC","OK ","OK ",    000849.272,    -029.497,    0150.351,    0020.826,    0125.800
"FRM_SS2_TRK_CMP_EDR_2603.DAT   ",2006-01-21T13:02:41.26 ,"1/0085928557.34469",    0,   26,   53509,"SS2","B3","B2","B3","B2","PISd",1,2,0,1,"B2", 0,15,   1, 0,    0,"TRK","NO  REC","OK ","OK ",    000846.789,    -029.599,    0150.350,    0020.827,    0125.763
"FRM_SS2_TRK_CMP_EDR_2603.DAT   ",2006-01-21T13:02:43.30 ,"1/0085928559.37284",    0,   27,   53509,"SS2","B3","B2","B3","B2","PISd",1,2,0,1,"B2", 0,15,   1, 0,    0,"TRK","NO  REC","OK ","OK ",    000844.319,    -029.701,    0150.350,    0020.828,    0125.727
"FRM_SS2_TRK_CMP_EDR_2603.DAT   ",2006-01-21T13:02:45.34 ,"1/0085928561.40098",    0,   28,   53509,"SS2","B3","B2","B3","B2","PISd",1,2,0,1,"B2", 0,15,   1, 0,    0,"TRK","NO  REC","OK ","OK ",    000841.853,    -029.804,    0150.350,    0020.828,    0125.690
"FRM_SS2_TRK_CMP_EDR_2603.DAT   ",2006-01-21T13:02:47.38 ,"1/0085928563.42398",    0,   29,   53509,"SS2","B3","B2","B3","B2","PISd",1,2,0,1,"B2", 0,15,   1, 0,    0,"TRK","NO  REC","OK ","OK ",    000839.399,    -029.906,    0150.349,    0020.829,    0125.654
"FRM_SS2_TRK_CMP_EDR_2603.DAT   ",2006-01-21T13:02:49.41 ,"1/0085928565.44698",    0,   30,   53509,"SS2","B3","B2","B3","B2","PISd",1,2,0,1,"B2", 0,15,   1, 0,    0,"TRK","NO  REC","OK ","OK ",    000836.950,    -030.008,    0150.349,    0020.829,    0125.617
"FRM_SS2_TRK_CMP_EDR_2603.DAT   ",2006-01-21T13:02:51.44 ,"1/0085928567.46483",    0,   31,   53509,"SS2","B3","B2","B3","B2","PISd",1,2,0,1,"B2", 0,15,   1, 0,    0,"TRK","NO  REC","OK ","OK ",    000834.513,    -030.110,    0150.349,    0020.830,    0125.580
"FRM_SS2_TRK_CMP_EDR_2603.DAT   ",2006-01-21T13:02:53.47 ,"1/0085928569.48268",    0,   32,   53509,"SS2","B3","B2","B3","B2","PISd",1,2,0,1,"B2", 0,15,   1, 0,    0,"TRK","NO  REC","OK ","OK ",    000832.080,    -030.212,    0150.349,    0020.830,    0125.543
"FRM_SS2_TRK_CMP_EDR_2603.DAT   ",2006-01-21T13:02:55.49 ,"1/0085928571.50053",    0,   33,   53509,"SS2","B3","B2","B3","B2","PISd",1,2,0,1,"B2", 0,15,   1, 0,    0,"TRK","NO  REC","OK ","OK ",    000829.651,    -030.314,    0150.349,    0020.831,    0125.506
"FRM_SS2_TRK_CMP_EDR_2603.DAT   ",2006-01-21T13:02:57.51 ,"1/0085928573.51323",    0,   34,   53509,"SS2","B3","B2","B3","B2","PISd",1,2,0,1,"B2", 0,15,   1, 0,    0,"TRK","NO  REC","OK ","OK ",    000827.235,    -030.415,    0150.349,    0020.831,    0125.469
"FRM_SS2_TRK_CMP_EDR_2603.DAT   ",2006-01-21T13:02:59.53 ,"1/0085928575.52593",    0,   35,   53509,"SS2","B3","B2","B3","B2","PISd",1,2,0,1,"B2", 0,15,   1, 0,    0,"TRK","NO  REC","OK ","OK ",    000824.823,    -030.517,    0150.348,    0020.832,    0125.432
"FRM_SS2_TRK_CMP_EDR_2603.DAT   ",2006-01-21T13:03:01.54 ,"1/0085928577.53348",    0,   36,   53509,"SS2","B3","B2","B3","B2","PISd",1,2,0,1,"B2", 0,15,   1, 0,    0,"TRK","NO  REC","OK ","OK ",    000822.424,    -030.619,    0150.348,    0020.832,    0125.395
"FRM_SS2_TRK_CMP_EDR_2603.DAT   ",2006-01-21T13:03:03.56 ,"1/0085928579.54103",    0,   37,   53509,"SS2","B3","B2","B3","B2","PISd",1,2,0,1,"B2", 0,15,   1, 0,    0,"TRK","NO  REC","OK ","OK ",    000820.028,    -030.721,    0150.348,    0020.833,    0125.357
"FRM_SS2_TRK_CMP_EDR_2603.DAT   ",2006-01-21T13:03:05.56 ,"1/0085928581.54343",    0,   38,   53509,"SS2","B3","B2","B3","B2","PISd",1,2,0,1,"B2", 0,15,   1, 0,    0,"TRK","NO  REC","OK ","OK ",    000817.646,    -030.822,    0150.348,    0020.833,    0125.320
"FRM_SS2_TRK_CMP_EDR_2603.DAT   ",2006-01-21T13:03:07.56 ,"1/0085928583.54583",    0,   39,   53509,"SS2","B3","B2","B3","B2","PISd",1,2,0,1,"B2", 0,15,   1, 0,    0,"TRK","NO  REC","OK ","OK ",    000815.267,    -030.924,    0150.348,    0020.834,    0125.282
"FRM_SS2_TRK_CMP_EDR_2603.DAT   ",2006-01-21T13:03:09.56 ,"1/0085928585.54308",    0,   40,   53509,"SS2","B3","B2","B3","B2","PISd",1,2,0,1,"B2", 0,15,   1, 0,    0,"TRK","NO  REC","OK ","OK ",    000812.901,    -031.025,    0150.348,    0020.834,    0125.245
"FRM_SS2_TRK_CMP_EDR_2603.DAT   ",2006-01-21T13:03:11.56 ,"1/0085928587.54034",    0,   41,   53509,"SS2","B3","B2","B3","B2","PISd",1,2,0,1,"B2", 0,15,   1, 0,    0,"TRK","NO  REC","OK ","OK ",    000810.538,    -031.127,    0150.348,    0020.835,    0125.207
"FRM_SS2_TRK_CMP_EDR_2603.DAT   ",2006-01-21T13:03:13.55 ,"1/0085928589.53759",    0,   42,   53509,"SS2","B3","B2","B3","B2","PISd",1,2,0,1,"B2", 0,15,   1, 0,    0,"TRK","NO  REC","OK ","OK ",    000808.180,    -031.228,    0150.349,    0020.836,    0125.169
"FRM_SS2_TRK_CMP_EDR_2603.DAT   ",2006-01-21T13:03:15.54 ,"1/0085928591.52969",    0,   43,   53509,"SS2","B3","B2","B3","B2","PISd",1,2,0,1,"B2", 0,15,   1, 0,    0,"TRK","NO  REC","OK ","OK ",    000805.834,    -031.329,    0150.349,    0020.836,    0125.131
"FRM_SS2_TRK_CMP_EDR_2603.DAT   ",2006-01-21T13:03:17.53 ,"1/0085928593.52179",    0,   44,   53509,"SS2","B3","B2","B3","B2","PISd",1,2,0,1,"B2", 0,15,   1, 0,    0,"TRK","NO  REC","OK ","OK ",    000803.492,    -031.431,    0150.349,    0020.837,    0125.093
"FRM_SS2_TRK_CMP_EDR_2603.DAT   ",2006-01-21T13:03:19.51 ,"1/0085928595.50874",    0,   45,   53509,"SS2","B3","B2","B3","B2","PISd",1,2,0,1,"B2", 0,15,   1, 0,    0,"TRK","NO  REC","OK ","OK ",    000801.163,    -031.532,    0150.349,    0020.837,    0125.055
"FRM_SS2_TRK_CMP_EDR_2603.DAT   ",2006-01-21T13:03:21.49 ,"1/0085928597.49570",    0,   46,   53509,"SS2","B3","B2","B3","B2","PISd",1,2,0,1,"B2", 0,15,   1, 0,    0,"TRK","NO  REC","OK ","OK ",    000798.838,    -031.633,    0150.349,    0020.838,    0125.017
"FRM_SS2_TRK_CMP_EDR_2603.DAT   ",2006-01-21T13:03:23.46 ,"1/0085928599.47750",    0,   47,   53509,"SS2","B3","B2","B3","B2","PISd",1,2,0,1,"B2", 0,15,   1, 0,    0,"TRK","NO  REC","OK ","OK ",    000796.525,    -031.734,    0150.349,    0020.838,    0124.979
"FRM_SS2_TRK_CMP_EDR_2603.DAT   ",2006-01-21T13:03:25.43 ,"1/0085928601.45930",    0,   48,   53509,"SS2","B3","B2","B3","B2","PISd",1,2,0,1,"B2", 0,15,   1, 0,    0,"TRK","NO  REC","OK ","OK ",    000794.216,    -031.835,    0150.350,    0020.839,    0124.941
"FRM_SS2_TRK_CMP_EDR_2603.DAT   ",2006-01-21T13:03:27.40 ,"1/0085928603.44110",    0,   49,   53509,"SS2","B3","B2","B3","B2","PISd",1,2,0,1,"B2", 0,15,   1, 0,    0,"TRK","NO  REC","OK ","OK ",    000791.911,    -031.936,    0150.350,    0020.839,    0124.902
"FRM_SS2_TRK_CMP_EDR_2603.DAT   ",2006-01-21T13:03:29.37 ,"1/0085928605.41776",    0,   50,   53509,"SS2","B3","B2","B3","B2","PISd",1,2,0,1,"B2", 0,15,   1, 0,    0,"TRK","NO  REC","OK ","OK ",    000789.618,    -032.037,    0150.350,    0020.840,    0124.864
"FRM_SS2_TRK_CMP_EDR_2603.DAT   ",2006-01-21T13:03:31.33 ,"1/0085928607.39441",    0,   51,   53509,"SS2","B3","B2","B3","B2","PISd",1,2,0,1,"B2", 0,15,   1, 0,    0,"TRK","NO  REC","OK ","OK ",    000787.330,    -032.138,    0150.351,    0020.841,    0124.825
"FRM_SS2_TRK_CMP_EDR_2603.DAT   ",2006-01-21T13:03:33.29 ,"1/0085928609.36592",    0,   52,   53509,"SS2","B3","B2","B3","B2","PISd",1,2,0,1,"B2", 0,15,   1, 0,    0,"TRK","NO  REC","OK ","OK ",    000785.054,    -032.239,    0150.351,    0020.841,    0124.787
"FRM_SS2_TRK_CMP_EDR_2603.DAT   ",2006-01-21T13:03:35.25 ,"1/0085928611.33742",    0,   53,   53509,"SS2","B3","B2","B3","B2","PISd",1,2,0,1,"B2", 0,15,   1, 0,    0,"TRK","NO  REC","OK ","OK ",    000782.781,    -032.339,    0150.351,    0020.842,    0124.748
"FRM_SS2_TRK_CMP_EDR_2603.DAT   ",2006-01-21T13:03:37.19 ,"1/0085928613.30377",    0,   54,   53509,"SS2","B3","B2","B3","B2","PISd",1,2,0,1,"B2", 0,15,   1, 0,    0,"TRK","NO  REC","OK ","OK ",    000780.522,    -032.440,    0150.352,    0020.842,    0124.709
"FRM_SS2_TRK_CMP_EDR_2603.DAT   ",2006-01-21T13:03:39.14 ,"1/0085928615.27013",    0,   55,   53509,"SS2","B3","B2","B3","B2","PISd",1,2,0,1,"B2", 0,15,   1, 0,    0,"TRK","NO  REC","OK ","OK ",    000778.266,    -032.540,    0150.352,    0020.843,    0124.670
"FRM_SS2_TRK_CMP_EDR_2603.DAT   ",2006-01-21T13:03:41.09 ,"1/0085928617.23648",    0,   56,   53509,"SS2","B3","B2","B3","B2","PISd",1,2,0,1,"B2", 0,15,   1, 0,    0,"TRK","NO  REC","OK ","OK ",    000776.014,    -032.641,    0150.353,    0020.843,    0124.631
"FRM_SS2_TRK_CMP_EDR_2603.DAT   ",2006-01-21T13:03:43.03 ,"1/0085928619.19769",    0,   57,   53509,"SS2","B3","B2","B3","B2","PISd",1,2,0,1,"B2", 0,15,   1, 0,    0,"TRK","NO  REC","OK ","OK ",    000773.774,    -032.742,    0150.353,    0020.844,    0124.592
"FRM_SS2_TRK_CMP_EDR_2603.DAT   ",2006-01-21T13:03:44.97 ,"1/0085928621.15889",    0,   58,   53509,"SS2","B3","B2","B3","B2","PISd",1,2,0,1,"B2", 0,15,   1, 0,    0,"TRK","NO  REC","OK ","OK ",    000771.538,    -032.842,    0150.354,    0020.844,    0124.553
"FRM_SS2_TRK_CMP_EDR_2603.DAT   ",2006-01-21T13:03:46.91 ,"1/0085928623.11495",    0,   59,   53509,"SS2","B3","B2","B3","B2","PISd",1,2,0,1,"B2", 0,15,   1, 0,    0,"TRK","NO  REC","OK ","OK ",    000769.315,    -032.942,    0150.354,    0020.845,    0124.514
"FRM_SS2_TRK_CMP_EDR_2603.DAT   ",2006-01-21T13:03:48.84 ,"1/0085928625.07100",    0,   60,   53509,"SS2","B3","B2","B3","B2","PISd",1,2,0,1,"B2", 0,15,   1, 0,    0,"TRK","NO  REC","OK ","OK ",    000767.095,    -033.043,    0150.355,    0020.846,    0124.475
"FRM_SS2_TRK_CMP_EDR_2603.DAT   ",2006-01-21T13:03:50.76 ,"1/0085928627.02191",    0,   61,   53509,"SS2","B3","B2","B3","B2","PISd",1,2,0,1,"B2", 0,15,   1, 0,    0,"TRK","NO  REC","OK ","OK ",    000764.889,    -033.143,    0150.355,    0020.846,    0124.435
"FRM_SS2_TRK_CMP_EDR_2603.DAT   ",2006-01-21T13:03:52.69 ,"1/0085928628.62817",    0,   62,   53509,"SS2","B3","B2","B3","B2","PISd",1,2,0,1,"B2", 0,15,   1, 0,    0,"TRK","NO  REC","OK ","OK ",    000762.685,    -033.243,    0150.356,    0020.847,    0124.396
"FRM_SS2_TRK_CMP_EDR_2603.DAT   ",2006-01-21T13:03:54.61 ,"1/0085928630.57908",    0,   63,   53509,"SS2","B3","B2","B3","B2","PISd",1,2,0,1,"B2", 0,15,   1, 0,    0,"TRK","NO  REC","OK ","OK ",    000760.486,    -033.343,    0150.357,    0020.847,    0124.356
"FRM_SS2_TRK_CMP_EDR_2603.DAT   ",2006-01-21T13:03:56.53 ,"1/0085928632.52484",    0,   64,   53509,"SS2","B3","B2","B3","B2","PISd",1,2,0,1,"B2", 0,15,   1, 0,    0,"TRK","NO  REC","OK ","OK ",    000758.298,    -033.443,    0150.357,    0020.848,    0124.317
"FRM_SS2_TRK_CMP_EDR_2603.DAT   ",2006-01-21T13:03:58.45 ,"1/0085928634.47059",    0,   65,   53509,"SS2","B3","B2","B3","B2","PISd",1,2,0,1,"B2", 0,15,   1, 0,    0,"TRK","NO  REC","OK ","OK ",    000756.115,    -033.543,    0150.358,    0020.848,    0124.277
"FRM_SS2_TRK_CMP_EDR_2603.DAT   ",2006-01-21T13:04:00.36 ,"1/0085928636.41120",    0,   66,   53509,"SS2","B3","B2","B3","B2","PISd",1,2,0,1,"B2", 0,15,   1, 0,    0,"TRK","NO  REC","OK ","OK ",    000753.944,    -033.643,    0150.359,    0020.849,    0124.238
"FRM_SS2_TRK_CMP_EDR_2603.DAT   ",2006-01-21T13:04:02.27 ,"1/0085928638.35181",    0,   67,   53509,"SS2","B3","B2","B3","B2","PISd",1,2,0,1,"B2", 0,15,   1, 0,    0,"TRK","NO  REC","OK ","OK ",    000751.777,    -033.742,    0150.360,    0020.849,    0124.198
"FRM_SS2_TRK_CMP_EDR_2603.DAT   ",2006-01-21T13:04:04.18 ,"1/0085928640.29241",    0,   68,   53509,"SS2","B3","B2","B3","B2","PISd",1,2,0,1,"B2", 0,15,   1, 0,    0,"TRK","NO  REC","OK ","OK ",    000749.613,    -033.842,    0150.360,    0020.850,    0124.158
"FRM_SS2_TRK_CMP_EDR_2603.DAT   ",2006-01-21T13:04:06.08 ,"1/0085928642.22787",    0,   69,   53509,"SS2","B3","B2","B3","B2","PISd",1,2,0,1,"B2", 0,15,   1, 0,    0,"TRK","NO  REC","OK ","OK ",    000747.462,    -033.942,    0150.361,    0020.851,    0124.118
"FRM_SS2_TRK_CMP_EDR_2603.DAT   ",2006-01-21T13:04:07.98 ,"1/0085928644.16333",    0,   70,   53509,"SS2","B3","B2","B3","B2","PISd",1,2,0,1,"B2", 0,15,   1, 0,    0,"TRK","NO  REC","OK ","OK ",    000745.315,    -034.042,    0150.362,    0020.851,    0124.078
"FRM_SS2_TRK_CMP_EDR_2603.DAT   ",2006-01-21T13:04:09.87 ,"1/0085928646.09364",    0,   71,   53509,"SS2","B3","B2","B3","B2","PISd",1,2,0,1,"B2", 0,15,   1, 0,    0,"TRK","NO  REC","OK ","OK ",    000743.180,    -034.141,    0150.363,    0020.852,    0124.038
"FRM_SS2_TRK_CMP_EDR_2603.DAT   ",2006-01-21T13:04:11.77 ,"1/0085928648.02395",    0,   72,   53509,"SS2","B3","B2","B3","B2","PISd",1,2,0,1,"B2", 0,15,   1, 0,    0,"TRK","NO  REC","OK ","OK ",    000741.048,    -034.241,    0150.364,    0020.852,    0123.998
"FRM_SS2_TRK_CMP_EDR_2603.DAT   ",2006-01-21T13:04:13.66 ,"1/0085928649.60961",    0,   73,   53509,"SS2","B3","B2","B3","B2","PISd",1,2,0,1,"B2", 0,15,   1, 0,    0,"TRK","NO  REC","OK ","OK ",    000738.921,    -034.340,    0150.365,    0020.853,    0123.957
"FRM_SS2_TRK_CMP_EDR_2603.DAT   ",2006-01-21T13:04:15.55 ,"1/0085928651.53477",    0,   74,   53509,"SS2","B3","B2","B3","B2","PISd",1,2,0,1,"B2", 0,15,   1, 0,    0,"TRK","NO  REC","OK ","OK ",    000736.805,    -034.440,    0150.366,    0020.854,    0123.917
"FRM_SS2_TRK_CMP_EDR_2603.DAT   ",2006-01-21T13:04:17.43 ,"1/0085928653.45993",    0,   75,   53509,"SS2","B3","B2","B3","B2","PISd",1,2,0,1,"B2", 0,15,   1, 0,    0,"TRK","NO  REC","OK ","OK ",    000734.694,    -034.539,    0150.367,    0020.854,    0123.876
"FRM_SS2_TRK_CMP_EDR_2603.DAT   ",2006-01-21T13:04:19.31 ,"1/0085928655.37994",    0,   76,   53509,"SS2","B3","B2","B3","B2","PISd",1,2,0,1,"B2", 0,15,   1, 0,    0,"TRK","NO  REC","OK ","OK ",    000732.594,    -034.638,    0150.368,    0020.855,    0123.836
"FRM_SS2_TRK_CMP_EDR_2603.DAT   ",2006-01-21T13:04:21.19 ,"1/0085928657.29995",    0,   77,   53509,"SS2","B3","B2","B3","B2","PISd",1,2,0,1,"B2", 0,15,   1, 0,    0,"TRK","NO  REC","OK ","OK ",    000730.498,    -034.737,    0150.369,    0020.855,    0123.796
"FRM_SS2_TRK_CMP_EDR_2603.DAT   ",2006-01-21T13:04:23.07 ,"1/0085928659.21996",    0,   78,   53509,"SS2","B3","B2","B3","B2","PISd",1,2,0,1,"B2", 0,15,   1, 0,    0,"TRK","NO  REC","OK ","OK ",    000728.406,    -034.837,    0150.370,    0020.856,    0123.755
"FRM_SS2_TRK_CMP_EDR_2603.DAT   ",2006-01-21T13:04:24.94 ,"1/0085928661.13482",    0,   79,   53509,"SS2","B3","B2","B3","B2","PISd",1,2,0,1,"B2", 0,15,   1, 0,    0,"TRK","NO  REC","OK ","OK ",    000726.327,    -034.936,    0150.371,    0020.856,    0123.714
"FRM_SS2_TRK_CMP_EDR_2603.DAT   ",2006-01-21T13:04:26.81 ,"1/0085928663.04968",    0,   80,   53509,"SS2","B3","B2","B3","B2","PISd",1,2,0,1,"B2", 0,15,   1, 0,    0,"TRK","NO  REC","OK ","OK ",    000724.250,    -035.035,    0150.372,    0020.857,    0123.673
"FRM_SS2_TRK_CMP_EDR_2603.DAT   ",2006-01-21T13:04:28.67 ,"1/0085928664.61475",    0,   81,   53509,"SS2","B3","B2","B3","B2","PISd",1,2,0,1,"B2", 0,15,   1, 0,    0,"TRK","NO  REC","OK ","OK ",    000722.187,    -035.134,    0150.373,    0020.858,    0123.633
"FRM_SS2_TRK_CMP_EDR_2603.DAT   ",2006-01-21T13:04:30.53 ,"1/0085928666.52446",    0,   82,   53509,"SS2","B3","B2","B3","B2","PISd",1,2,0,1,"B2", 0,15,   1, 0,    0,"TRK","NO  REC","OK ","OK ",    000720.126,    -035.233,    0150.374,    0020.858,    0123.592
"FRM_SS2_TRK_CMP_EDR_2603.DAT   ",2006-01-21T13:04:32.39 ,"1/0085928668.43417",    0,   83,   53509,"SS2","B3","B2","B3","B2","PISd",1,2,0,1,"B2", 0,15,   1, 0,    0,"TRK","NO  REC","OK ","OK ",    000718.070,    -035.332,    0150.376,    0020.859,    0123.551
"FRM_SS2_TRK_CMP_EDR_2603.DAT   ",2006-01-21T13:04:34.25 ,"1/0085928670.33873",    0,   84,   53509,"SS2","B3","B2","B3","B2","PISd",1,2,0,1,"B2", 0,15,   1, 0,    0,"TRK","NO  REC","OK ","OK ",    000716.025,    -035.430,    0150.377,    0020.859,    0123.510
"FRM_SS2_TRK_CMP_EDR_2603.DAT   ",2006-01-21T13:04:36.10 ,"1/0085928672.24329",    0,   85,   53509,"SS2","B3","B2","B3","B2","PISd",1,2,0,1,"B2", 0,15,   1, 0,    0,"TRK","NO  REC","OK ","OK ",    000713.984,    -035.529,    0150.378,    0020.860,    0123.469
"FRM_SS2_TRK_CMP_EDR_2603.DAT   ",2006-01-21T13:04:37.95 ,"1/0085928674.14270",    0,   86,   53509,"SS2","B3","B2","B3","B2","PISd",1,2,0,1,"B2", 0,15,   1, 0,    0,"TRK","NO  REC","OK ","OK ",    000711.956,    -035.627,    0150.379,    0020.861,    0123.428
"FRM_SS2_TRK_CMP_EDR_2603.DAT   ",2006-01-21T13:04:39.79 ,"1/0085928676.04211",    0,   87,   53509,"SS2","B3","B2","B3","B2","PISd",1,2,0,1,"B2", 0,15,   1, 0,    0,"TRK","NO  REC","OK ","OK ",    000709.931,    -035.726,    0150.381,    0020.861,    0123.386
"FRM_SS2_TRK_CMP_EDR_2603.DAT   ",2006-01-21T13:04:41.64 ,"1/0085928677.59688",    0,   88,   53509,"SS2","B3","B2","B3","B2","PISd",1,2,0,1,"B2", 0,15,   1, 0,    0,"TRK","NO  REC","OK ","OK ",    000707.909,    -035.825,    0150.382,    0020.862,    0123.345
"FRM_SS2_TRK_CMP_EDR_2603.DAT   ",2006-01-21T13:04:43.48 ,"1/0085928679.49114",    0,   89,   53509,"SS2","B3","B2","B3","B2","PISd",1,2,0,1,"B2", 0,15,   1, 0,    0,"TRK","NO  REC","OK ","OK ",    000705.900,    -035.923,    0150.383,    0020.862,    0123.304
"FRM_SS2_TRK_CMP_EDR_2603.DAT   ",2006-01-21T13:04:45.32 ,"1/0085928681.38540",    0,   90,   53509,"SS2","B3","B2","B3","B2","PISd",1,2,0,1,"B2", 0,15,   1, 0,    0,"TRK","NO  REC","OK ","OK ",    000703.894,    -036.021,    0150.385,    0020.863,    0123.262